Tracking 30505 objects as of 23-May-2025
HD Live streaming from Space Station
objects crossing your sky now

THOR ABLESTAR DEB

Track THOR ABLESTAR DEB now!
10-day predictions


NORAD ID: 3164
Int'l Code: 1961-015HZ
Perigee: 849.2 km
Apogee: 927.8 km
Inclination: 66.7 °
Period: 102.6 minutes
Semi major axis: 7259 km
RCS: 0.0289 m2 (small)
Launch date: June 29, 1961
Source: United States (US)
Launch site: AIR FORCE EASTERN TEST RANGE (AFETR)

Note: This is SATELLITE DEBRIS
Your satellite tracking list
Your tracking list is empty




NASA's NSSDC Master Catalog

Two Line Element Set (TLE):
1  3164U 61015HZ  25142.83900583  .00000560  00000-0  40215-3 0  9993
2  3164  66.7478 346.1385 0054072 317.1490  42.5387 14.03599471 33544
Source of the keplerian elements: AFSPC